Starlink 3624

operational
NORAD ID: 51773 Int'l Des: 2022-017 Owner: SPXS Country: US Constellation: starlink
LEOCIRCULAR

Starlink 3624について

説明を読み込み中...

リアルタイム位置

3D地球を読み込み中...

次回通過

高度履歴

Altitude vs Time

uPlot chart will show altitude changes over time

軌道要素

1 51773U 22017F 25305.43254860 -.00000152 00000-0 85155-5 0 9990
2 51773 53.2161 194.8614 0001381 93.6062 266.5089 15.08835085203245
Epoch: Nov 1, 2025 • Age: 13 hours

現在のステータス

高度 543.3 km
速度 7.60 km/s
衛星直下点 43.62°N, 68.73°W
打ち上げ日 Feb 25, 2022
運用期間 3.6 years
タイプ internet

技術仕様

分類 Payload
質量 297.00 kg
乾燥質量 275.00 kg
総質量 297.00 kg
長さ 0.20 m
直径 2.80 m
スパン 9.00 m
形状 Box + pan
製造者 SPXS
バスタイプ Starlink
フェーズステータス In Orbit
所有者/国 SPXS/US

大規模コンステレーション

Loading constellations...